Regional Weather Roundup
Issued by NWS Cleveland, OH

Home | Current Version | Previous Version | Graphics & Text | Print | Product List | Glossary On
Versions: 1 2 3 4 5 6 7 8 9 10 11 12 13 14 15 16 17 18 19 20 21 22 23 24 25 26 27 28 29 30 31 32 33 34 35 36 37 38 39 40 41 42 43 44 45 46 47 48 49 50
000
ASUS41 KCLE 281402
RWRCLE
OHIO REGIONAL WEATHER ROUNDUP
NATIONAL WEATHER SERVICE CLEVELAND, OH
1000 AM EDT THU MAY 28 2015

NOTE: "FAIR" INDICATES FEW OR NO CLOUDS BELOW 12,000 FEET WITH NO
SIGNIFICANT WEATHER AND/OR OBSTRUCTIONS TO VISIBILITY.

OHZ001>008-015>018-024>027-034-035-043-044-281500-
   NORTHWEST OHIO

CITY           SKY/WX    TMP DP  RH WIND       PRES   REMARKS
DEFIANCE       SUNNY     69  59  70 E12       30.25R
FINDLAY        SUNNY     70  61  73 E12       30.23S
TOLEDO EXPRESS SUNNY     69  58  67 E6        30.24R
TOLEDO EXEC    SUNNY     69  58  67 E9        30.25R
LIMA           SUNNY     70  61  73 E9        30.24R
$$

OHZ009>014-019>023-028>033-038-089-281500-
   NORTHEAST OHIO

CITY           SKY/WX    TMP DP  RH WIND       PRES   REMARKS
CLE-HOPKINS    MOSUNNY   69  54  58 NE8       30.27R
CLE-LAKEFRONT  SUNNY     66  56  70 N8        30.25R
CUY CO. ARPT   NOT AVBL
LORAIN-ELYRIA  SUNNY     68  54  60 E10       30.26R
ASHTABULA      MOSUNNY   65  55  70 CALM      30.27R
AKRON-CANTON   PTSUNNY   69  59  70 E7        30.26R
WOOSTER        PTSUNNY   67  60  78 SE6       30.27R
MANSFIELD      PTSUNNY   67  60  78 E7        30.26R
YOUNGSTOWN     PTSUNNY   67  54  63 NE7       30.26R
$$

OHZ042-051>053-060>062-070>072-077>081-281500-
  SOUTHWEST OHIO

CITY           SKY/WX    TMP DP  RH WIND       PRES   REMARKS
CINC-COVINGTON CLOUDY    67  64  90 CALM      30.23R FOG
CINC-LUNKEN    CLOUDY    68  64  87 CALM      30.23R
HAMILTON       CLOUDY    69  64  84 CALM      30.23R
DAYTON         CLOUDY    71  64  78 E7        30.24R
WRIGHT-PAT AFB PTSUNNY   71  65  79 E2        30.22S
DAYTON GENERAL CLOUDY    70  64  81 NE5       30.22R
WILMINGTON     CLOUDY    69  63  81 VRB3      30.22R HAZE
$$

OHZ036-037-039>041-045>050-054>059-063>069-073>076-082>088-281500-
  CENTRAL AND SOUTHEAST OHIO

CITY           SKY/WX    TMP DP  RH WIND       PRES   REMARKS
COLUMBUS       CLOUDY    71  63  75 E8        30.23R
OSU AIRPORT    PTSUNNY   71  63  75 E9        30.23S
BOLTON FIELD   MOSUNNY   70  64  83 E8        30.24R
RICKENBACK AFB NOT AVBL
NEWARK         CLOUDY    71  63  75 E9        30.24R
MARION         MOSUNNY   70  61  73 E9        30.25R
LANCASTER      CLOUDY    71  63  75 NE6       30.24S
ZANESVILLE     NOT AVBL
NEW PHILLY     PTSUNNY   72  62  71 VRB5      30.25S
$$



USA.gov is the U.S. government's official web portal to all federal, state and local government web resources and services.